Weather History for Quincy, IL

Change the Weather History Date:

Monday, April 29, 2013

  Actual Average Record
Temperature  
Mean Temperature 64 °F 58 °F  
Max Temperature 81 °F 68 °F 91 °F (1910)
Min Temperature 47 °F 48 °F 30 °F (1958)
Degree Days  
Heating Degree Days 1 8  
Month to date heating degree days 432 362  
Since 1 July heating degree days 5485 5422  
Cooling Degree Days 0 1  
Month to date cooling degree days 4 16  
Year to date cooling degree days 4 18  
Growing Degree Days 13 (Base 50)    
Moisture  
Dew Point 54 °F    
Average Humidity 69    
Maximum Humidity 93    
Minimum Humidity 45    
Precipitation  
Precipitation 0.00 in 0.13 in 1.65 in (1963)
Month to date precipitation 6.23 3.56  
Year to date precipitation 13.85 9.42  
Sea Level Pressure  
Sea Level Pressure 29.79 in    
Wind  
Wind Speed 12 mph (SSE)    
Max Wind Speed 21 mph    
Max Gust Speed 26 mph    
Visibility 10 miles    
Events      
T = Trace of Precipitation, MM = Missing Value Source: NWS Daily Summary

Daily Weather History Graph

Daily Weather History Graph

Search for Another Location

Airport:

Trip Planner

Search our weather history database for the weather conditions in past years. The results will help you decide how hot, cold, wet, or windy it might be!

Date:

Astronomy

Apr. 29, 2013 Rise Set
Actual Time 6:07 AM CDT 7:57 PM CDT
Civil Twilight 5:38 AM CDT 8:26 PM CDT
Nautical Twilight 5:02 AM CDT 9:02 PM CDT
Astronomical Twilight 4:24 AM CDT 9:40 PM CDT
Moon No Moon Rise 9:28 AM CDT (4/29)
Length of Visible Light 14h 48m
Length of Day
13h 50m
Waning Gibbous, 80% of the Moon is Illuminated
Apr 29
Waning Gibbous
May 2
Last Quarter
May 9
New
May 17
First Quarter
May 24
Full

Hourly Weather History & Observations

Time (CDT) Temp. Heat Index Dew Point Humidity Pressure Visibility Wind Dir Wind Speed Gust Speed Precip Events Conditions
12:54 AM 51.1 °F - 46.9 °F 86% 29.89 in 10.0 mi South 6.9 mph - N/A   Clear
1:54 AM 51.1 °F - 46.9 °F 86% 29.88 in 10.0 mi South 8.1 mph - N/A   Clear
2:54 AM 50.0 °F - 46.9 °F 89% 29.88 in 10.0 mi SSE 8.1 mph - N/A   Clear
3:54 AM 46.9 °F - 45.0 °F 93% 29.88 in 8.0 mi SE 5.8 mph - N/A   Clear
4:54 AM 48.9 °F - 46.0 °F 90% 29.88 in 10.0 mi SSE 6.9 mph - N/A   Clear
5:54 AM 48.9 °F - 46.0 °F 90% 29.87 in 10.0 mi SSE 5.8 mph - N/A   Clear
6:54 AM 50.0 °F - 46.9 °F 89% 29.88 in 10.0 mi SSE 5.8 mph - N/A   Clear
7:54 AM 54.0 °F - 48.9 °F 83% 29.88 in 10.0 mi South 10.4 mph - N/A   Clear
8:54 AM 59.0 °F - 51.1 °F 75% 29.87 in 10.0 mi South 9.2 mph - N/A   Clear
9:54 AM 63.0 °F - 53.1 °F 70% 29.85 in 10.0 mi SSW 11.5 mph - N/A   Clear
10:54 AM 66.9 °F - 55.0 °F 66% 29.83 in 10.0 mi South 12.7 mph - N/A   Clear
11:54 AM 71.1 °F - 57.9 °F 63% 29.81 in 10.0 mi South 16.1 mph - N/A   Clear
12:54 PM 73.9 °F - 60.1 °F 62% 29.79 in 10.0 mi South 12.7 mph 19.6 mph N/A   Clear
1:54 PM 77.0 °F - 60.1 °F 56% 29.76 in 10.0 mi South 15.0 mph 23.0 mph N/A   Clear
2:54 PM 80.1 °F 80.9 °F 60.1 °F 50% 29.73 in 10.0 mi SSE 16.1 mph 25.3 mph N/A   Clear
3:54 PM 80.1 °F 80.7 °F 59.0 °F 48% 29.71 in 10.0 mi South 15.0 mph 23.0 mph N/A   Clear
4:54 PM 80.1 °F 80.9 °F 60.1 °F 50% 29.70 in 10.0 mi South 16.1 mph - N/A   Clear
5:54 PM 80.1 °F 80.6 °F 57.9 °F 47% 29.68 in 10.0 mi SSE 11.5 mph 23.0 mph N/A   Clear
6:54 PM 77.0 °F - 57.0 °F 50% 29.68 in 10.0 mi SSE 11.5 mph 21.9 mph N/A   Clear
7:54 PM 73.9 °F - 57.0 °F 55% 29.68 in 10.0 mi SSE 10.4 mph - N/A   Clear
8:54 PM 72.0 °F - 55.9 °F 57% 29.70 in 10.0 mi SSE 11.5 mph - N/A   Clear
9:54 PM 72.0 °F - 55.9 °F 57% 29.70 in 10.0 mi South 15.0 mph - N/A   Clear
10:54 PM 71.1 °F - 55.9 °F 59% 29.70 in 10.0 mi South 13.8 mph 20.7 mph N/A   Clear
11:54 PM 70.0 °F - 55.9 °F 61% 29.70 in 10.0 mi South 13.8 mph - N/A   Clear